Lapse_Rate
5.3 5.3 5.3 5.3 5.5 5.4 5.4 5.4 5.5 5.4 5.5 5.7 5.9 5.9 5.9 5.9 6.0 6.0 5.9 5.8 5.7 5.8 5.8 5.7 5.6 5.7 6.0 6.3 6.2 6.1 6.1 6.2 6.2 6.1 6.1 6.1 6.0 5.7 5.7 5.7 5.5 5.3 6.1 5.5 5.5 5.6 5.5
5.4 5.3 5.4 5.5 5.5 5.4 5.4 5.4 5.5 5.6 5.7 5.7 5.7 5.9 6.1 6.2 6.1 6.1 6.1 5.9 5.8 6.0 6.1 5.9 5.8 5.5 5.6 6.2 6.1 6.0 5.9 6.0 5.9 5.9 5.9 5.8 5.7 5.6 5.5 5.8 5.6 5.5 5.5 5.6 5.5 6.0 5.7
5.2 5.3 5.3 5.3 5.4 5.5 5.5 5.5 5.4 5.5 5.6 5.9 6.1 6.2 6.2 6.3 6.3 6.3 6.2 5.9 5.8 5.9 5.9 6.1 5.9 5.8 5.7 6.0 5.9 6.0 6.0 5.8 5.6 5.5 5.4 5.4 5.4 5.5 5.4 5.7 5.4 5.5 5.2 5.1 5.8 6.1 5.6
5.0 5.0 4.9 5.2 5.2 5.4 5.6 5.8 5.8 5.8 5.9 6.4 6.5 6.5 6.3 6.4 6.8 6.6 6.4 5.9 6.0 5.9 5.9 5.5 5.5 5.6 5.5 5.8 5.9 5.8 5.8 5.7 5.5 5.3 5.0 4.9 4.8 4.8 5.0 5.1 5.1 5.1 4.9 4.9 5.8 6.0 5.7
5.0 5.0 5.1 5.2 5.4 5.6 5.6 5.7 5.9 6.1 6.2 6.6 6.7 6.6 6.1 6.0 6.2 6.1 6.0 6.0 6.1 6.2 6.1 5.9 5.9 5.4 5.3 5.3 5.5 5.4 5.3 5.3 5.4 5.2 5.1 5.0 4.9 5.0 5.2 5.0 4.5 4.3 4.4 4.7 5.1 5.6 5.6
5.1 5.1 5.0 5.1 5.3 5.4 5.4 5.3 5.2 5.3 5.6 6.0 6.3 6.3 5.9 5.4 5.8 5.8 5.8 5.8 5.9 6.0 6.2 5.8 5.6 5.7 5.4 5.4 5.4 5.3 4.9 4.9 5.0 5.1 5.2 5.3 5.0 5.3 5.4 4.7 4.3 4.9 4.8 4.6 4.7 5.3 5.0
4.8 4.8 4.9 5.1 5.3 5.4 5.5 5.4 5.2 5.2 4.9 5.1 5.7 6.1 5.8 5.5 5.4 5.2 5.3 5.3 5.3 5.5 5.9 5.5 5.0 5.3 5.3 5.1 4.9 4.9 4.7 4.7 5.0 5.1 5.0 4.7 4.9 5.7 5.2 4.9 4.5 4.5 4.4 4.3 5.3 5.2 4.6
4.7 4.7 4.9 5.3 5.6 5.6 5.6 5.6 5.5 5.3 5.2 5.3 5.4 5.6 5.4 5.0 4.9 4.9 4.8 4.7 5.0 4.8 5.6 5.3 4.9 4.9 5.0 4.9 4.8 4.7 4.7 4.6 4.8 4.9 4.8 4.7 5.5 5.2 5.4 5.3 5.1 5.0 4.9 5.1 5.2 5.5 5.0
4.7 5.0 5.1 5.3 5.4 5.6 5.7 5.7 5.9 5.9 5.7 5.4 5.1 5.0 4.9 4.9 4.9 4.8 4.6 4.5 4.4 4.5 4.7 4.6 4.5 4.6 4.8 4.8 4.7 4.8 4.9 4.8 4.8 4.8 4.8 4.9 5.3 5.5 5.4 5.4 5.2 5.2 5.0 5.0 4.8 4.8 4.8
4.7 4.7 4.8 4.6 4.6 5.2 5.4 5.5 5.6 5.5 5.5 5.1 4.9 4.6 4.6 4.7 4.8 4.7 4.6 4.5 4.6 4.5 4.2 4.4 4.5 4.5 4.7 5.0 5.0 4.9 5.0 5.1 5.1 5.0 4.9 5.0 5.4 5.4 5.3 5.3 5.4 5.1 5.3 5.1 4.8 4.5 4.3
4.5 4.4 4.5 4.4 4.4 4.8 5.1 5.3 5.3 5.2 5.2 4.9 4.8 4.8 4.7 4.7 4.8 4.9 4.7 5.0 4.9 4.8 3.9 4.7 4.9 4.8 4.8 5.2 5.2 5.2 5.2 5.2 5.1 5.1 5.2 5.5 5.2 5.1 5.1 5.2 5.2 5.3 5.1 4.9 4.9 4.7 4.4
4.6 4.6 4.6 4.5 4.6 4.7 5.0 5.2 5.4 5.3 5.2 5.0 5.0 5.0 5.0 4.8 4.7 4.8 5.0 5.4 5.6 5.5 4.0 5.2 5.3 5.4 5.5 5.4 5.4 5.3 5.2 5.1 5.1 5.2 5.0 5.3 5.1 5.1 5.2 5.3 5.3 5.1 4.9 4.7 4.5 4.3 3.5
5.0 5.0 4.8 4.6 4.6 4.8 4.9 5.1 5.3 5.3 5.0 4.8 4.6 4.7 4.8 4.9 5.0 5.0 5.1 5.6 5.8 5.7 6.1 5.4 5.8 5.7 5.8 5.6 5.5 5.3 5.1 4.9 5.0 5.0 5.1 5.4 5.5 5.5 5.4 5.3 5.2 5.3 5.3 4.6 4.2 3.6 4.5
5.2 5.0 4.6 4.6 4.7 4.7 4.9 4.9 4.8 4.5 4.3 4.6 4.5 4.6 4.8 5.1 5.1 5.1 5.4 5.8 5.7 5.9 6.1 5.8 5.6 5.5 5.4 5.3 4.9 5.0 5.1 5.2 5.1 5.1 5.0 4.8 4.9 5.1 5.0 5.2 5.0 5.2 5.2 5.2 5.0 4.8 4.4
4.6 4.4 4.5 4.7 4.7 4.9 4.9 4.9 4.5 4.3 4.4 4.5 4.7 5.0 5.3 5.3 5.2 5.6 5.9 5.8 6.2 5.8 5.6 5.5 5.6 5.1 4.8 4.8 5.2 4.8 4.7 4.6 4.6 4.7 5.0 4.7 4.5 4.8 5.1 5.5 5.6 5.6 5.7 5.7 5.3 4.9 4.8
4.5 4.4 4.6 4.7 4.9 5.0 4.8 4.5 3.9 4.1 4.5 4.5 4.8 5.3 5.6 5.6 5.7 6.2 6.1 5.8 6.0 5.8 5.4 5.2 4.8 4.9 5.0 4.8 4.5 4.4 4.4 4.4 4.5 4.4 4.2 4.2 4.1 4.9 5.4 5.5 5.9 6.2 5.9 5.4 5.1 5.6 5.7
4.5 4.5 4.6 4.8 5.1 5.0 4.5 4.1 4.0 4.1 4.9 4.9 5.1 5.4 5.6 5.9 6.2 6.4 6.1 5.8 5.4 5.0 5.0 4.9 4.7 4.5 4.3 4.1 3.9 4.1 4.6 4.6 4.7 4.3 4.5 4.3 4.4 4.7 4.9 5.2 5.6 5.5 5.5 5.6 5.6 5.9 5.5
4.5 4.6 4.8 5.1 4.6 4.3 4.1 4.1 4.3 4.6 5.2 5.3 5.5 5.4 5.6 5.7 6.0 5.5 5.4 5.4 5.3 5.3 5.1 4.8 4.7 4.5 4.3 4.1 4.1 4.1 4.3 4.5 4.9 5.0 4.8 4.8 4.9 4.6 4.7 5.1 5.5 5.9 5.9 6.1 6.5 6.4 6.4
4.4 4.6 4.9 4.6 4.0 4.0 4.2 4.4 4.6 4.7 4.9 5.0 5.2 5.3 5.3 5.2 5.3 4.9 5.1 5.2 5.2 5.1 5.2 4.7 4.5 4.3 3.9 3.7 3.9 3.7 4.1 4.5 4.6 5.0 5.0 4.6 4.6 4.3 4.8 5.4 5.7 5.9 6.1 6.7 7.1 7.1 7.2
5.0 5.0 4.8 4.3 4.1 4.2 4.4 4.6 4.6 4.8 4.8 4.8 4.9 4.8 4.7 4.6 4.3 4.2 4.2 4.4 4.6 4.5 4.6 4.5 4.4 4.1 3.9 3.7 3.8 3.8 4.0 4.1 4.7 4.9 5.0 4.5 4.2 4.6 4.6 5.5 6.2 6.0 6.5 7.1 7.4 7.6 7.8
4.7 4.6 4.4 4.3 4.4 4.5 4.6 4.5 4.6 4.6 4.7 4.7 4.5 4.2 4.3 4.3 4.8 4.5 4.0 4.4 4.2 4.1 4.2 4.2 3.9 3.8 3.7 3.6 3.7 3.8 4.0 4.3 4.7 4.7 4.8 4.9 4.6 5.3 5.6 6.1 6.3 6.4 6.6 6.8 7.0 7.5 7.6
4.4 4.3 4.3 4.4 4.5 4.5 4.4 4.5 4.5 4.5 4.4 4.4 4.1 4.0 3.8 4.0 4.5 4.1 4.2 4.3 4.2 4.1 4.0 4.0 4.0 3.9 3.7 3.5 3.5 3.2 3.8 4.3 4.5 5.3 5.3 5.4 5.3 5.7 6.0 7.0 7.0 6.7 7.2 7.6 7.6 7.4 7.1
4.1 4.2 4.4 4.5 4.6 4.6 4.5 4.5 4.3 3.8 3.5 3.4 3.6 3.6 3.2 3.0 3.6 3.8 4.3 4.4 4.3 4.3 4.4 4.7 4.5 4.1 4.2 4.1 3.9 4.0 4.3 4.8 4.7 5.4 5.7 5.6 5.9 6.1 6.0 7.0 6.8 7.0 7.9 8.0 7.9 7.9 7.9
4.3 4.4 4.4 4.5 4.5 4.4 4.3 4.1 3.9 3.8 4.0 3.8 3.7 3.6 3.7 3.3 3.8 4.1 4.4 4.8 5.3 5.4 5.3 5.5 5.2 4.9 4.6 4.3 4.6 5.1 5.3 5.8 6.0 6.3 6.1 6.0 6.3 6.4 6.7 7.2 6.1 8.3 8.5 8.4 8.2 8.2 8.1
4.2 4.3 4.2 4.3 4.4 4.1 3.9 4.0 3.4 3.9 4.5 4.8 5.0 4.9 4.6 4.1 4.4 4.8 4.8 4.8 5.5 6.2 5.9 5.6 5.4 5.2 5.0 4.8 4.6 5.2 5.8 6.1 6.4 6.5 6.8 7.1 6.8 6.8 7.3 7.4 7.7 8.4 8.9 8.7 8.5 8.3 8.3
4.1 3.9 4.1 4.0 4.0 3.8 4.0 4.5 4.8 4.5 5.0 5.2 5.3 5.3 5.1 4.6 4.7 5.0 4.7 5.3 5.5 6.1 6.3 6.0 5.6 5.2 5.3 5.2 5.5 5.6 6.1 6.2 6.3 6.8 7.2 7.4 7.4 7.3 7.3 7.1 6.5 8.3 8.2 8.1 8.1 8.2 8.3
3.9 3.9 3.8 3.8 3.9 4.2 4.7 5.1 5.1 4.8 5.1 5.3 5.4 5.7 5.4 5.0 5.1 5.3 5.3 5.2 5.8 6.4 6.5 6.3 5.8 5.8 6.3 6.0 5.9 5.9 6.2 6.6 6.8 7.2 7.5 7.5 7.3 7.2 7.3 7.0 7.2 7.7 7.7 7.7 7.7 7.8 7.7
3.7 3.7 3.7 3.8 4.2 4.6 4.9 4.9 4.6 4.5 4.6 5.1 5.3 5.8 6.2 5.8 5.4 5.8 5.8 6.0 6.4 7.1 6.8 6.4 6.3 6.6 6.5 6.3 6.2 6.4 6.7 6.8 7.0 7.1 7.2 7.1 7.0 7.0 6.9 6.8 6.4 7.4 7.2 7.2 7.2 7.2 7.2
3.6 3.7 3.9 3.9 3.7 3.9 4.1 4.2 4.2 4.4 4.6 5.0 5.1 5.7 6.3 6.1 5.7 6.0 6.0 7.2 7.2 6.8 6.7 6.4 6.6 6.7 6.5 6.6 6.5 6.5 6.6 6.5 6.5 6.3 7.0 6.8 7.1 7.0 7.0 7.1 7.1 7.0 7.0 6.8 6.7 6.9 6.7
Wind_Speed
21 21 22 23 23 24 25 25 26 27 27 28 28 29 29 30 30 29 29 30 29 29 24 20 15 6 3 3 8 5 5 6 6 5 6 5 5 5 5 4 4 5 4 3 5 6 4
20 21 21 22 23 24 25 26 27 28 28 29 30 31 33 34 34 33 33 33 32 30 25 24 13 10 3 5 2 6 6 5 4 4 5 5 6 5 4 4 6 1 2 5 6 6 5
20 21 21 23 25 26 27 28 29 29 30 30 31 33 36 36 36 36 36 37 32 28 28 17 8 3 3 10 4 6 6 3 4 3 2 3 2 3 2 3 2 2 5 6 7 4 6
21 22 23 25 25 26 27 27 28 29 30 30 31 33 36 36 37 38 39 40 33 27 13 4 11 1 6 3 1 2 2 3 3 3 3 3 3 2 2 3 5 2 2 2 2 5 3
21 22 23 23 24 25 26 28 29 29 29 30 31 34 36 38 39 38 40 40 32 8 4 12 4 3 7 1 1 1 2 3 4 3 2 3 3 2 1 2 4 2 4 4 7 6 3
18 18 20 21 23 25 27 29 29 31 32 33 33 35 36 38 38 39 40 30 10 5 5 1 2 3 1 2 1 1 2 3 3 4 3 3 4 2 2 3 6 5 4 4 5 1 2
18 19 21 23 25 26 27 29 31 33 34 35 36 36 37 38 38 39 17 4 5 3 6 3 3 5 3 3 0 3 2 3 3 3 5 1 2 8 9 6 1 1 3 4 6 4 3
18 21 23 25 26 28 30 31 33 34 35 37 37 38 38 39 40 25 4 5 3 4 8 3 4 4 4 2 1 2 3 3 2 3 4 3 8 7 4 5 7 6 5 11 8 2 5
21 23 24 26 28 30 32 33 34 35 37 37 36 38 41 41 34 4 2 4 7 2 3 6 3 2 2 1 3 3 2 3 3 5 6 6 3 4 5 3 4 4 5 5 8 4 2
20 21 23 25 27 29 32 33 34 36 35 36 38 39 41 38 4 4 3 5 7 1 3 3 1 1 1 1 1 1 1 2 2 5 7 5 2 3 3 4 7 4 2 2 3 2 3
19 20 21 23 26 29 32 34 36 37 36 38 39 40 39 14 5 4 5 10 3 2 4 2 2 1 1 1 1 1 1 2 4 5 4 4 2 2 3 1 2 2 2 0 2 3 2
17 19 21 22 25 28 31 34 36 37 38 39 39 42 32 5 2 4 13 10 2 4 5 2 1 4 4 2 3 2 1 1 0 2 1 4 1 3 1 1 1 0 1 2 3 2 2
17 19 21 23 25 27 29 33 36 37 40 39 41 40 12 6 3 16 10 2 4 4 4 5 4 6 2 4 2 3 2 4 2 4 2 3 2 1 2 2 2 2 3 3 3 1 4
19 20 21 23 24 26 28 30 34 37 39 40 42 30 9 3 13 12 2 4 2 4 3 3 5 6 2 5 3 6 2 2 6 4 3 2 3 1 3 1 2 2 3 3 4 2 3
20 22 23 24 25 26 28 29 31 34 37 42 36 5 4 3 14 3 4 2 2 0 3 7 9 2 2 3 6 6 3 2 1 4 3 2 4 1 1 1 1 2 2 5 1 3 1
21 22 23 24 24 25 26 28 30 33 36 38 9 4 4 16 13 3 4 1 2 1 3 1 2 1 2 4 4 6 3 1 4 1 4 2 5 2 2 1 2 1 4 3 1 4 5
22 23 23 23 24 23 22 25 27 30 33 29 3 5 3 19 2 4 2 3 3 2 3 1 2 4 2 1 2 1 3 3 3 1 2 1 6 1 2 4 4 1 2 2 1 2 3
23 22 23 22 24 23 20 22 23 27 31 11 3 4 4 7 3 2 1 2 3 3 3 3 1 4 2 2 3 4 5 2 2 1 2 0 2 4 8 2 1 2 3 4 3 4 3
24 24 24 24 24 22 21 20 20 22 24 3 6 4 4 4 3 3 4 4 3 2 2 4 2 2 3 2 3 3 3 3 2 4 3 1 2 3 6 0 1 2 3 4 4 1 6
25 26 25 26 25 22 21 19 17 16 17 3 3 4 4 4 2 3 4 4 5 3 1 2 3 3 3 3 2 4 3 2 1 2 6 4 5 7 6 9 7 8 5 6 8 4 5
25 26 26 26 25 24 21 20 17 12 9 3 2 2 1 4 2 4 2 4 4 4 3 3 4 1 3 1 4 5 2 5 5 6 2 3 4 5 8 10 6 13 15 14 13 15 8
27 26 27 27 26 26 23 21 18 11 2 2 1 1 1 4 3 3 3 3 4 3 1 3 3 4 4 4 7 11 4 4 7 4 3 2 4 1 7 14 13 13 15 14 14 15 13
28 28 28 28 28 27 23 22 20 14 5 3 2 2 2 3 2 2 4 6 4 2 4 6 3 1 5 11 8 12 11 8 7 4 4 3 2 1 5 4 2 6 7 4 3 5 5
29 29 29 29 28 28 25 23 23 19 14 3 3 3 3 5 4 6 5 9 12 12 11 5 4 3 5 3 5 5 10 14 14 15 8 3 3 1 4 2 0 6 4 4 6 5 7
31 31 31 31 30 30 28 28 26 23 18 5 3 3 2 4 4 6 13 11 12 7 5 8 7 4 1 2 3 6 4 2 3 5 9 10 3 3 2 2 5 7 2 4 5 4 3
32 33 32 31 30 29 28 26 26 24 20 8 5 4 3 3 6 5 3 4 10 5 2 5 2 2 0 2 2 2 3 3 4 2 4 6 4 2 2 2 3 6 2 2 2 3 5
33 33 32 31 29 30 30 28 24 20 20 11 4 10 2 4 4 6 5 4 4 2 3 2 2 2 1 1 2 3 3 0 1 2 3 1 2 5 3 3 7 5 2 3 5 4 3
33 32 30 29 29 28 28 26 24 22 22 8 3 13 4 3 5 8 6 5 3 3 3 3 1 1 1 1 1 2 3 3 1 3 4 6 3 3 2 1 6 1 1 3 2 3 1
33 32 31 30 29 29 28 26 24 22 18 11 3 9 10 4 3 5 6 10 10 13 5 5 2 4 4 2 2 1 2 1 4 3 2 2 6 3 7 5 2 3 1 2 2 2 1
Wind_Direction
32 29 26 23 21 15 11 8 6 3 359 356 353 349 345 341 337 333 329 324 320 319 316 307 297 249 154 182 250 162 135 134 107 126 157 154 152 162 188 202 170 221 248 203 242 237 231
31 27 24 22 19 15 10 6 4 1 358 355 351 347 344 341 336 332 328 322 318 319 313 306 280 167 160 218 129 131 128 122 144 146 172 154 196 198 213 219 181 191 249 261 257 236 219
29 27 22 21 16 12 8 5 2 359 356 354 351 348 343 340 335 330 323 319 317 318 310 304 196 168 160 237 130 118 134 145 154 144 170 204 229 166 148 272 307 312 300 292 227 223 228
27 23 19 17 13 9 6 3 360 357 355 353 350 348 344 340 336 329 323 316 316 312 306 164 160 18 248 333 137 91 110 110 109 132 129 118 124 180 204 306 357 292 121 282 250 153 234
26 21 18 14 10 7 3 0 357 355 352 351 349 346 342 338 334 329 322 316 315 304 119 130 109 136 276 308 95 64 18 131 121 91 90 111 97 164 36 122 356 315 258 219 312 195 119
22 19 14 11 7 4 0 357 354 350 349 347 346 343 341 338 335 332 322 318 314 73 76 85 82 68 261 325 352 52 18 102 120 109 82 80 60 131 58 130 237 228 236 243 252 205 160
17 13 10 7 3 360 357 353 351 348 347 344 342 338 339 338 336 332 331 357 14 349 39 311 287 280 274 317 323 37 350 101 102 84 164 64 146 220 213 210 205 244 225 248 254 209 204
13 10 7 3 358 355 354 352 350 347 345 343 342 338 337 338 334 331 2 57 48 265 310 297 265 263 253 243 242 40 359 127 138 164 119 62 234 214 190 192 223 242 270 272 278 183 196
9 6 1 358 356 355 353 351 349 347 344 342 342 340 336 336 329 39 52 69 306 269 267 297 225 256 247 163 181 185 132 134 153 150 191 185 179 126 172 184 192 221 211 226 250 331 236
4 1 0 357 354 353 350 348 347 345 343 342 342 341 338 335 43 328 67 325 319 145 352 285 1 334 101 57 237 311 10 159 182 196 171 230 256 184 166 217 171 261 267 290 274 359 267
1 358 356 354 352 350 348 347 346 345 344 342 341 341 343 9 312 357 310 320 324 71 4 337 337 344 18 261 117 293 305 110 202 191 156 250 165 145 210 226 198 261 19 286 173 187 359
353 353 353 352 351 349 347 345 345 344 343 341 340 338 344 2 336 259 315 309 104 53 257 342 59 352 357 13 22 323 139 32 47 173 40 269 35 34 63 90 16 8 299 71 53 105 257
346 348 349 349 349 349 347 344 343 344 342 340 339 335 342 321 310 310 312 23 27 141 0 340 337 339 356 317 27 23 24 27 7 352 21 335 43 9 13 118 15 90 63 317 317 338 246
344 343 343 343 343 346 346 343 342 343 341 340 338 332 319 238 308 320 1 35 212 29 2 357 325 306 98 9 5 342 20 76 33 25 39 33 314 12 343 49 161 75 145 177 261 270 288
338 338 340 339 340 341 343 343 343 343 343 341 339 324 342 280 331 349 55 43 233 37 289 331 316 7 6 14 12 6 20 112 89 22 106 4 266 169 210 174 180 213 155 150 170 233 256
331 332 334 334 336 336 337 340 342 345 345 343 331 347 292 333 345 53 64 217 232 354 310 324 243 31 310 356 0 8 316 90 141 83 14 191 292 196 123 63 30 200 157 86 205 230 233
329 328 329 327 325 325 331 336 340 344 347 347 24 359 268 337 27 49 103 276 310 257 347 271 280 306 283 339 294 279 265 67 40 100 186 239 206 237 80 211 206 138 242 220 161 246 225
324 323 323 324 323 326 325 331 337 343 350 2 24 330 319 345 47 15 359 327 311 306 336 311 194 257 280 28 256 238 221 97 207 202 84 219 294 260 239 179 254 154 212 188 217 259 231
319 318 320 316 315 320 321 323 333 342 356 344 332 280 309 32 59 359 313 287 273 290 348 338 305 38 14 294 280 267 360 203 210 57 139 225 297 333 312 337 343 226 193 213 291 226 210
315 316 315 312 312 313 316 317 321 335 352 62 8 328 324 33 36 37 325 291 304 337 148 326 292 322 17 331 343 337 322 324 171 203 283 220 198 196 243 259 303 282 282 234 219 228 253
314 314 312 310 313 310 308 309 310 320 354 77 26 285 111 316 343 324 294 300 297 297 27 323 339 358 120 311 320 259 265 344 313 301 60 218 239 229 263 268 276 279 274 262 244 253 249
312 311 309 310 309 307 304 300 300 296 39 99 215 335 314 262 275 282 243 239 266 288 266 285 193 270 144 185 211 283 214 201 239 328 161 205 257 135 280 274 263 263 262 250 250 260 259
311 311 309 307 308 306 301 303 296 277 223 186 220 258 225 230 222 225 222 236 260 188 247 235 225 131 281 274 253 237 234 234 230 229 202 212 232 185 251 262 322 303 245 207 220 205 199
310 308 308 307 306 305 303 301 302 292 254 179 190 177 234 257 205 234 250 245 265 264 263 264 193 201 237 332 288 274 251 254 253 249 228 232 183 210 264 24 53 240 200 201 226 266 217
311 310 309 310 311 311 311 308 304 292 281 228 181 191 226 253 214 258 263 265 272 270 274 252 250 223 59 21 322 327 332 301 215 214 214 218 179 244 191 199 287 299 157 171 172 285 217
308 308 310 309 310 309 311 309 309 303 286 264 193 194 201 270 222 215 225 249 270 246 268 242 352 11 324 159 226 248 257 252 304 36 48 175 221 225 75 213 263 241 196 194 132 297 168
308 305 306 306 309 308 306 305 306 305 304 291 227 186 204 253 211 159 210 197 171 254 251 269 263 172 224 222 237 233 247 198 266 169 168 143 280 230 248 264 278 255 193 195 90 252 177
303 303 303 302 300 307 310 309 305 303 301 287 213 194 215 252 227 199 204 189 186 209 207 217 180 334 124 190 201 244 215 245 51 240 186 173 186 209 104 153 283 197 142 145 278 344 67
301 302 303 302 301 301 306 310 307 304 299 277 238 198 208 249 265 215 228 238 236 219 250 186 209 157 207 147 238 267 268 171 192 267 161 265 194 199 187 221 53 47 145 243 236 322 3